Location: Nantong Television Tower
(32.0188°N, 120.8512°E)
Time: 13:01:14
(UTC+08:00)

Daily predictions for brighter satellites

Satellite Brightness Start Highest point End
(mag) Time Altitude Azimuth Time Altitude Azimuth Time Altitude Azimuth
Delta 168 4.2 17:59:07 10° SW 18:02:44 33° SSE 18:07:46 10° ESE
Cosmos 2237 Rocket 4.4 17:58:56 10° WSW 18:03:50 29° WNW 18:08:44 10° N
Cosmos 1441 Rocket 4.0 18:05:21 10° NNW 18:09:01 56° W 18:12:41 10° S
Meteor 1-28 Rocket 3.5 18:06:35 10° NNE 18:10:08 42° E 18:13:39 10° S
Cosmos 1076 Rocket 4.3 18:06:20 10° NNE 18:10:13 31° E 18:14:05 10° SE
Cosmos 1805 4.1 18:07:53 10° SSE 18:11:17 29° E 18:14:42 10° NNE
COSMOS 2441 4.4 18:06:50 10° SSE 18:11:42 82° ENE 18:16:33 10° N
OAO 3 Rocket 3.5 18:07:20 10° W 18:12:00 59° N 18:16:46 10° ENE
Cosmos-2242 3.8 18:09:27 10° SSE 18:13:13 29° E 18:17:00 10° NNE
Cosmos 1953 2.9 18:11:30 10° SSE 18:15:06 33° E 18:18:41 10° NNE
ATLAS CENTAUR R/B 1.8 18:13:15 10° NW 18:17:14 59° WSW 18:20:56 10° SSE
GPS 2-04 Rocket1 2.3 18:18:57 10° WSW 18:22:23 84° SSE 18:25:36 12° ENE
SL-16 R/B 3.4 18:19:28 10° SW 18:24:54 46° WNW 18:30:23 10° N
Cosmos 1707 4.4 18:21:58 10° NNW 18:25:34 39° W 18:29:09 10° SSW
Spot 2 Rocket 4.1 18:22:38 10° SE 18:27:06 33° ENE 18:31:35 10° N
FREGAT/IRIS 3.2 18:24:25 10° SE 18:27:17 36° ENE 18:30:10 10° N
Cosmos 1072 Rocket 4.5 18:22:01 10° S 18:28:08 90° NE 18:34:15 10° N
Atlas Centaur 2 3.6 18:20:23 10° W 18:28:40 55° SSW 18:36:35 10° SE
Cosmos 1269 Rocket 4.3 18:25:58 10° S 18:30:58 46° ESE 18:36:00 10° NNE
SAR-Lupe-1 3.9 18:29:55 10° SSE 18:33:27 72° ENE 18:37:00 10° N
Cosmos 1470 4.0 18:32:18 10° SE 18:35:14 21° E 18:38:09 10° NE
ALOS 3.5 18:33:34 15° ESE 18:35:53 21° ENE 18:39:21 10° NNE
Abrixas 4.0 18:34:39 10° WSW 18:37:26 34° NW 18:40:13 10° NNE
Cosmos 1408 Rocket 3.5 18:34:54 10° N 18:39:12 62° E 18:43:27 10° SSE
Meteor 1-29 3.3 18:36:25 10° NNE 18:39:44 40° E 18:43:01 10° S
Cosmos 2056 Rocket 4.3 18:34:54 10° NNW 18:40:13 57° WSW 18:45:29 10° S
Milstar 3 4.3 18:33:28 10° W 18:43:00 75° S 18:57:43 19° ESE
SJ-6B 2.9 18:40:48 10° S 18:44:44 84° WSW 18:48:48 10° NNW
Cosmos 1346 4.1 18:45:06 10° NNE 18:47:15 26° ENE 18:47:15 26° ENE
Cosmos 158 Rocket 4.4 18:47:32 10° SSE 18:51:53 33° E 18:56:13 10° NE
Cosmos 1674 4.0 18:48:47 10° NNE 18:51:21 23° ENE 18:51:21 23° ENE
Gbstr 26 Del rocket 3.0 18:50:23 10° SW 18:54:34 80° SE 18:58:46 15° NE
Helios 1A 3.1 18:50:39 10° SSE 18:54:44 54° ENE 18:58:51 10° N
ASTRO E2 2.8 18:51:54 10° W 18:55:55 70° S 18:57:36 33° ESE
CENTAUR R/B 2.4 18:52:26 10° SSW 18:58:09 60° ESE 19:04:31 10° NE
Cosmos 1758 4.0 18:54:26 10° SSW 18:58:26 59° W 19:02:29 10° N
Resurs 1-3 3.7 18:54:35 12° SSE 18:58:27 52° ENE 19:02:43 10° N
Resurs 01 Rocket 1.5 18:58:19 10° SSE 19:02:45 80° ENE 19:07:13 10° N
Cosmos 2034 Rocket 4.3 18:56:52 10° SSW 19:03:04 70° W 19:09:23 10° N
Cosmos 1943 3.2 19:01:18 10° S 19:06:48 56° ESE 19:12:17 10° NNE
Cosmos 1743 Rocket 3.5 19:04:24 10° N 19:08:46 62° E 19:11:20 24° SSE
Cosmos 2369 Rocket 3.2 19:06:06 10° N 19:10:42 26° ENE 19:10:42 26° ENE
SeaSat 1 2.7 19:15:01 41° ESE 19:15:01 41° ESE 19:19:37 10° S
BREEZE-M DEB (TANK) 4.1 18:57:53 10° NW 19:16:58 83° SW 19:19:50 30° SE
Cosmos 1544 4.2 19:14:57 10° SSW 19:18:32 45° W 19:22:09 10° N
CZ-2D R/B 4.3 19:32:29 36° N 19:32:29 36° N 19:34:53 10° N
ISS -0.9 19:29:47 10° W 19:32:13 19° NW 19:33:05 18° NNW
SEDSat Delta rocket 4.0 19:28:20 10° W 19:35:03 78° S 19:36:47 53° ESE
USA 215 4.4 19:36:26 10° NNE 19:42:27 41° NW 19:48:26 10° WSW
H-2A R/B 4.2 19:46:00 32° NNW 19:46:00 32° NNW 19:48:10 10° NNW
ASTEX 1 4.2 19:45:49 10° N 19:50:32 50° W 19:55:14 10° SSW
OAO 3 Rocket 3.7 19:50:59 10° WNW 19:54:47 56° WNW 19:54:47 56° WNW
Delta 168 4.5 19:54:35 10° WSW 19:58:53 43° SSW 19:58:53 43° SSW
ALOS 4.0 20:12:08 27° WSW 20:13:06 30° W 20:17:11 10° NW
Atlas Centaur 2 4.4 20:11:26 10° W 20:17:49 24° SSW 20:19:26 23° SSW
Cosmos 1943 Rocket 4.5 20:47:36 10° NNW 20:48:51 17° NNW 20:48:51 17° NNW
Cosmos 2369 Rocket 4.1 20:49:43 10° NW 20:52:32 25° WNW 20:52:32 25° WNW
